Weather in Dorogino

Russia / Novosibirsk Oblast     54°21′44″N   83°19′12″E
temp.,
°C
wind,
m/s
gust,
m/s
humid.,
%
clouds,
%
prec.,
mm/h
press.,
hPa
HPBL,
m
28 february, sun
sun2801:00−29ssw349919 0.0 104035
04:00−29s339953 0.0 103931
07:00−29sse349943 0.0 103956
10:00−27sse489889 0.0 1037167
13:00−21sse599780 0.0 1035278
16:00−15sse5991100 0.0 1032526
19:00−14sse5995100 0.5 1028362
22:00−13se61194100 0.6 1025356
1 march, mon
mon101:00−12se61094100 1.1 1022344
04:00−10sse61294100 0.4 1018449
07:00−8sse61195100 1.5 1014543
10:00−6s71295100 1.8 1011765
13:00−3ssw91693100 2.9 1009897
16:000sw101698100 1.9 10081003
19:000sw81494100 2.7 1007903
22:00−1wsw81493100 1.0 1007909
2 march, tue
tue201:00−2wsw71394100 1.3 1008610
04:00−3wsw6129599 0.4 1010612
07:00−9wnw499699 1.0 1013338
10:00−12w489596 0.2 1015340
13:00−11wsw479298 0.3 1017449
16:00−10wsw3592100 0.1 1017478
19:00−12wsw2396100 0.3 101747
22:00−14wsw129696 0.1 101720
3 march, wed
wed301:00−14sw129696 0.2 101722
04:00−15wsw129685 0.1 101620
07:00−16wsw129788 0.2 101720
10:00−14sw229698 0.1 1017112
13:00−11wsw239099 0.3 1018337
16:00−10wsw3591100 0.2 1019535
19:00−12sw379599 0.3 1021206
22:00−14ssw499789 0.1 1023267
4 march, thu
thu401:00−17s489993 0.1 1024154
04:00−17s599797 0.0 1023175
07:00−14s6109698 0.1 1023281
10:00−11s71293100 0.2 1022475
13:00−7s71288100 0.3 1022635
16:00−6s71287100 0.0 1021629
19:00−6s71387100 0.0 1020487
22:00−8s71487100 0.0 1019377